Theta_e
332 332 332 333 330 329 329 328 329 331 329 328 327 326 326 325 325 325 322 334 333 334 335 337 339 340 340 342 344 343 344 344 343 345 346 346 346 347 347 347 347 348 348
332 332 331 331 330 330 330 330 328 325 321 320 319 319 319 318 323 322 322 321 330 330 331 332 333 335 336 337 338 339 342 341 340 341 342 343 344 343 342 344 345 346 347
329 331 332 328 331 332 330 325 319 316 313 313 311 311 311 313 318 318 319 319 320 326 328 329 330 330 332 333 336 337 338 335 336 339 340 340 343 344 341 340 341 343 345
329 329 328 328 330 325 319 318 314 310 309 309 308 307 306 309 311 313 313 315 318 320 322 326 327 328 330 329 332 334 335 335 335 335 337 338 340 341 342 340 338 340 343
332 329 328 326 319 316 317 315 311 309 307 307 309 307 306 305 306 310 308 310 313 315 317 322 324 324 326 330 330 327 331 332 333 334 334 336 337 339 340 340 339 338 338
332 322 318 315 314 313 311 310 308 308 307 306 309 307 305 304 305 305 306 310 311 312 312 315 316 317 323 325 330 324 325 330 332 333 335 336 335 337 338 339 339 338 337
323 318 315 312 312 312 310 310 309 306 306 306 303 302 302 303 303 304 305 308 310 312 312 314 314 315 316 322 325 326 327 331 333 332 335 336 335 334 336 337 338 340 340
323 319 313 311 310 309 309 309 307 305 305 306 302 297 296 298 300 303 305 307 308 309 312 314 313 313 313 314 318 323 326 328 331 332 334 335 335 333 333 334 336 338 340
319 315 313 311 309 309 308 307 307 306 303 305 303 301 295 292 296 300 302 305 306 308 309 313 313 312 312 314 318 320 324 326 330 332 331 333 334 332 334 333 336 337 338
316 315 314 313 310 309 308 309 311 307 305 302 303 304 301 300 295 295 300 303 304 306 307 310 312 314 311 312 318 321 321 324 328 332 330 332 332 333 332 334 336 336 337
314 316 314 311 309 309 309 309 309 308 306 304 302 301 300 299 298 297 295 302 306 305 307 309 312 311 313 312 309 313 324 330 332 333 332 332 332 332 334 333 334 336 334
312 313 314 310 309 311 310 310 310 309 308 306 304 302 301 300 298 296 295 297 298 302 306 308 312 313 312 311 318 328 329 330 329 330 331 330 332 331 332 334 333 334 333
311 311 312 309 308 309 310 310 309 309 309 306 305 304 303 302 301 300 298 298 297 301 304 305 309 312 316 314 316 326 327 327 326 325 326 327 328 331 332 333 333 333 333
311 313 312 311 310 310 311 310 309 309 309 308 307 305 305 306 304 303 302 298 298 297 299 303 307 309 312 314 320 327 320 325 326 325 323 323 326 328 330 331 332 332 332
312 312 311 311 310 310 311 309 309 309 308 307 307 307 306 308 309 305 304 303 300 296 298 301 303 307 309 312 317 318 318 323 327 326 323 323 325 327 328 329 329 328 329
311 312 312 312 311 310 310 309 308 309 308 307 308 307 307 308 308 307 306 304 302 300 297 301 303 305 308 314 315 318 317 325 324 325 324 323 322 324 325 325 326 327 328
312 311 312 313 311 309 309 308 309 310 309 308 308 307 308 308 307 307 307 305 305 302 299 305 303 306 307 308 311 313 315 316 318 323 324 322 320 320 321 322 323 324 324
312 314 314 313 313 311 310 308 309 310 309 308 308 307 308 310 307 308 307 306 306 308 305 304 305 306 307 310 310 310 314 319 318 323 324 322 320 318 319 319 319 319 319
312 313 314 314 314 313 311 310 310 310 309 309 309 308 306 306 306 306 307 307 309 310 307 305 307 306 308 308 308 310 311 313 317 324 323 322 319 318 318 318 317 317 315
313 312 313 314 315 315 314 312 311 309 309 310 309 307 307 307 306 306 307 308 308 308 306 305 305 306 306 308 307 307 308 309 312 319 322 321 319 318 317 317 318 318 314
314 313 313 313 314 315 316 313 313 311 309 308 308 308 309 310 316 315 310 309 307 306 305 305 304 303 304 305 305 307 307 309 310 313 315 314 315 313 313 316 319 320 315
315 315 315 315 314 317 304 306 312 309 307 307 307 308 308 313 313 315 316 317 312 306 305 304 304 304 305 305 306 307 306 305 305 312 311 312 313 313 313 312 314 314 313
314 314 314 315 301 299 300 301 305 309 308 307 307 307 308 312 312 312 314 315 314 314 314 308 305 305 305 307 307 306 305 305 305 309 310 308 310 309 314 313 311 311 310
311 311 306 302 296 296 298 298 303 307 308 307 307 308 307 308 309 309 311 312 313 313 312 312 310 311 310 312 309 309 308 307 307 309 310 305 308 310 312 311 310 309 308
307 307 303 300 295 294 297 297 295 296 297 298 302 306 307 305 301 302 309 312 311 310 313 312 310 308 307 307 308 307 305 303 302 305 308 306 306 303 311 311 312 311 308
304 309 305 299 300 293 296 296 295 294 293 294 296 301 305 300 298 298 303 308 310 310 306 308 308 307 306 308 306 307 306 304 302 303 307 306 302 303 304 306 310 310 309
Wind_Speed
4 4 2 3 2 1 2 2 3 3 4 6 6 6 6 6 5 3 2 10 10 10 12 15 18 20 19 17 15 14 15 13 13 11 11 11 11 11 12 12 13 13 14
4 3 3 2 1 1 3 3 3 4 4 5 5 6 5 6 5 5 4 4 8 9 10 11 11 13 15 19 21 16 13 11 11 11 11 10 8 8 9 9 10 11 11
4 4 3 1 2 4 4 5 5 4 5 4 5 5 5 6 6 5 4 4 3 5 6 9 12 11 12 11 18 17 12 9 8 8 8 10 10 9 9 9 9 8 8
3 3 2 2 4 4 4 4 3 4 4 4 3 4 4 4 6 6 4 4 4 4 7 13 14 16 16 10 16 17 16 12 9 9 9 10 10 10 10 10 10 9 8
4 5 4 4 5 4 4 3 4 3 2 4 4 4 5 3 4 5 8 7 7 5 4 10 14 16 18 19 15 14 30 8 9 12 13 14 13 13 14 12 10 10 9
6 7 5 5 5 4 4 3 4 4 2 2 3 5 5 3 2 5 6 5 5 6 6 6 5 8 19 21 20 13 29 27 13 13 15 14 15 14 12 13 12 12 11
8 7 5 5 5 5 3 3 2 4 4 4 3 5 4 3 3 5 4 5 6 6 6 5 4 5 5 16 18 16 20 25 21 18 15 14 15 16 14 12 13 12 11
7 6 6 5 6 4 4 3 3 1 2 3 2 1 4 5 4 4 4 4 6 6 7 6 5 6 5 3 7 11 16 20 21 17 15 14 15 17 16 15 13 14 12
7 7 6 6 5 4 2 1 2 4 1 3 2 3 3 2 4 3 4 5 6 6 6 7 6 5 6 2 4 7 12 20 20 17 10 15 17 17 16 13 14 14 14
7 7 7 5 4 3 2 1 2 2 3 2 3 0 2 3 1 5 4 5 5 6 7 7 7 5 3 3 8 16 21 18 20 15 11 13 16 19 18 17 18 15 14
6 6 6 5 3 2 2 2 1 1 1 2 3 2 2 1 2 3 5 9 6 5 5 6 5 4 5 4 5 8 17 18 16 13 17 15 16 15 19 20 20 17 15
3 5 5 4 3 3 3 2 2 3 3 4 3 3 3 2 3 2 3 4 4 6 5 5 5 5 3 4 8 12 11 10 7 5 9 11 12 14 16 19 19 20 17
2 4 4 3 3 3 4 3 3 4 4 3 4 3 3 4 3 3 2 4 3 4 4 3 3 4 4 3 5 8 8 9 9 8 7 9 12 13 16 16 19 16 12
4 3 4 4 6 5 4 4 2 4 4 4 6 5 4 5 3 3 3 2 4 3 3 5 3 3 4 4 7 12 5 10 9 9 10 10 13 15 14 15 15 12 9
3 5 5 6 6 5 6 5 4 5 4 4 5 6 4 5 3 4 3 3 3 4 5 4 3 4 4 5 7 5 6 12 13 9 6 9 11 10 11 13 12 12 15
5 5 4 5 6 6 6 5 4 6 5 5 4 5 5 4 5 4 3 3 3 4 4 3 4 4 5 4 7 6 6 11 11 8 8 8 6 7 8 9 10 10 10
5 5 6 6 6 7 7 5 6 7 6 7 5 6 7 5 5 5 3 3 3 4 4 5 3 3 4 5 6 4 6 5 5 9 9 7 4 3 7 8 8 8 9
4 7 6 6 6 7 7 7 7 7 7 7 7 6 7 4 6 5 4 6 4 4 4 8 3 3 4 5 5 5 5 4 4 8 9 8 9 8 6 7 8 8 9
7 7 6 7 7 7 7 8 8 8 8 7 7 7 7 6 6 4 5 5 4 4 4 4 5 2 3 2 4 3 4 5 3 9 10 10 10 10 10 10 9 8 8
7 7 7 7 7 7 7 7 7 8 7 7 7 7 7 7 7 7 5 6 5 5 3 4 4 4 3 3 2 3 5 2 4 3 3 4 7 10 10 10 9 10 9
6 6 6 7 7 6 6 7 7 7 7 7 7 7 7 8 13 9 4 6 5 4 4 4 4 3 3 3 3 2 3 4 4 4 1 1 2 3 4 6 7 10 9
5 5 6 6 7 6 18 17 11 7 7 7 7 7 6 9 9 11 10 10 8 5 5 4 4 4 5 4 3 2 2 2 4 2 1 3 2 3 2 3 5 8 9
4 6 6 7 9 8 16 17 16 6 6 7 8 6 6 5 8 7 8 9 9 11 14 6 6 6 5 5 3 2 3 3 4 4 1 3 1 2 0 2 3 2 1
5 5 6 7 6 6 13 19 18 11 8 7 6 6 6 8 9 8 7 7 7 7 6 5 9 10 9 9 6 4 4 3 4 4 3 3 1 1 2 2 3 2 7
2 3 4 5 5 5 10 14 11 8 9 11 9 7 7 6 13 14 6 8 7 6 4 10 11 11 15 12 8 2 4 2 3 3 3 3 2 2 2 3 4 5 4
4 2 5 4 5 2 8 10 8 4 8 7 9 8 6 11 17 17 8 5 6 5 4 6 6 7 6 7 12 8 4 4 3 2 3 4 3 3 1 1 2 3 3
Wind_Direction
161 147 156 115 140 215 259 275 306 312 357 7 9 5 350 335 353 14 26 21 16 2 358 346 317 296 281 275 258 247 237 226 230 227 221 218 220 223 222 224 226 219 219
124 98 78 102 197 226 24 12 37 47 39 34 11 360 360 2 338 4 360 357 357 348 347 353 358 354 346 341 286 272 255 231 225 223 214 206 198 208 219 224 226 227 221
99 93 90 10 339 29 39 60 60 50 36 14 11 6 360 348 356 16 11 342 360 330 307 308 307 302 309 354 327 303 252 221 209 222 224 227 207 203 213 222 228 231 241
138 109 104 16 32 67 62 74 52 49 37 18 348 343 333 7 12 21 5 346 304 291 319 310 303 301 290 300 308 320 269 245 233 234 241 238 234 219 217 222 232 230 231
146 75 51 63 76 63 67 71 49 73 37 360 332 336 329 14 13 348 341 331 315 315 298 303 306 305 291 267 272 312 310 297 251 245 251 251 239 232 225 219 231 235 236
92 103 88 77 71 82 59 60 78 37 44 314 330 339 311 359 322 349 327 321 304 291 282 274 279 280 289 285 257 238 290 304 303 262 238 243 247 249 243 232 229 233 238
122 110 100 88 75 69 66 47 79 45 357 360 13 335 324 29 329 334 324 315 311 303 280 263 270 277 299 308 301 247 229 271 302 275 244 231 239 242 244 236 238 234 233
126 113 118 102 92 90 62 63 71 30 349 20 6 51 352 336 322 296 301 313 307 305 297 277 263 272 238 248 282 282 284 285 300 278 254 224 234 237 238 242 240 238 233
134 130 108 103 92 96 110 118 103 81 25 317 76 126 352 303 328 300 309 303 315 312 301 299 268 242 254 203 303 273 296 300 297 275 267 231 230 233 226 236 241 238 236
129 119 114 117 117 135 132 193 140 124 133 270 328 270 222 184 287 328 307 299 300 307 308 309 314 318 318 300 296 294 295 292 285 279 257 248 238 236 242 226 236 235 234
119 120 129 142 140 164 186 170 218 249 191 192 192 277 299 281 201 181 291 325 333 327 312 318 307 307 327 307 285 284 297 280 254 259 241 236 248 241 231 227 232 223 227
135 140 144 150 161 184 214 237 235 242 254 237 207 216 213 205 266 230 254 283 270 303 304 305 340 327 319 293 290 296 333 309 346 286 264 266 257 248 237 227 225 230 226
159 178 161 173 209 215 234 236 242 255 257 230 223 233 220 232 195 196 201 273 282 295 309 290 293 303 315 307 272 306 333 344 327 319 290 284 277 255 238 223 223 230 237
175 177 186 200 224 225 235 237 246 254 246 249 249 225 244 255 211 191 198 195 311 291 296 277 299 318 313 299 299 339 320 320 300 257 262 266 265 250 231 214 213 208 218
173 180 200 209 227 235 237 241 247 259 247 253 257 260 241 260 244 248 217 188 188 303 304 298 300 295 309 304 296 307 313 305 306 300 283 298 287 233 210 195 196 201 196
192 198 218 230 241 242 244 238 252 258 250 260 246 257 263 252 254 256 242 225 191 203 267 225 267 273 286 287 293 306 296 297 300 301 281 293 326 204 189 188 187 186 185
213 230 242 246 240 244 248 246 250 253 248 263 265 251 265 261 260 260 252 247 240 177 240 292 253 287 293 299 295 283 286 283 282 279 262 255 264 177 166 166 173 177 188
220 234 244 245 246 245 247 240 249 248 241 256 257 256 258 270 272 263 248 250 241 219 211 279 274 285 265 285 275 294 300 286 275 281 263 233 217 210 209 194 196 198 204
231 244 240 245 251 246 243 241 236 246 244 244 245 232 250 259 272 265 258 253 246 257 228 239 280 261 273 294 308 290 287 297 262 270 253 231 217 213 211 214 217 220 218
228 240 249 254 254 255 250 247 244 246 249 246 237 236 243 244 250 265 257 252 250 255 252 254 276 282 254 284 260 286 320 294 298 284 263 227 203 210 211 214 216 219 219
247 255 263 265 270 274 268 253 252 251 248 246 246 247 244 248 259 246 247 259 244 245 258 258 267 270 281 303 291 276 278 301 293 239 232 270 192 194 211 210 220 218 208
302 292 294 294 310 356 355 344 313 267 253 246 254 257 255 273 266 264 267 253 219 225 243 223 247 245 264 248 228 250 264 324 319 327 288 283 176 242 246 228 219 208 206
16 21 17 19 60 26 2 357 344 291 264 255 249 248 274 266 261 259 259 254 261 235 229 224 238 235 253 233 215 246 233 225 239 281 150 279 110 221 264 73 77 80 259
33 45 48 74 67 26 18 21 14 3 345 317 292 284 278 288 293 280 263 251 248 252 246 225 227 250 242 254 212 214 211 252 283 270 177 228 117 173 124 136 151 337 332
4 77 87 92 83 25 14 31 33 12 1 342 338 339 341 5 349 340 276 261 262 268 257 261 238 251 259 246 236 167 239 197 277 259 196 163 186 149 187 185 186 189 262
308 127 106 93 90 41 16 35 33 10 358 347 335 337 344 356 338 340 331 290 253 263 303 307 311 305 286 253 222 218 189 206 204 301 230 151 148 141 232 270 207 154 240